Location: Home
(42.5358°N, 72.7383°W)
Time: 17:47:42
(UTC-05:00)

SR - Pass Details

Date: 12 December 2021
Orbit: 582 x 872 km, 66.7° (Epoch: 20 January)

Event Time Altitude Azimuth Distance (km) Brightness Sun altitude
Exits shadow 05:01:07 15° 5° (N) 1,623 ? -23.2°
Maximum altitude 05:03:35 24° 49° (NE) 1,279 ? -22.7°
Drops below altitude 10° 05:07:18 10° 104° (ESE) 2,031 ? -22.1°
Sets 05:10:01 0° 118° (ESE) 2,987 ? -21.6°
